DW3648 Weather Reports


time (UTC)temp
F
wind
direction
speed
knots
gust
knots
rain 1hr
in
rain 24hr
in
rain mn
in
humidity
%
barometer
mb
20260507154545 70 275 0.9 4.3 0.00 0.00 0.00 44 1003.0
20260507153045 69 178 2.6 7.8 0.00 0.00 0.00 47 1003.1
20260507151540 69 197 1.7 7.0 0.00 0.00 0.00 47 1003.2
20260507150040 67 259 2.6 12.2 0.00 0.00 0.00 50 1003.4
20260507144536 68 214 5.2 13.9 0.00 0.00 0.00 49 1003.3
20260507143037 68 224 1.7 6.1 0.00 0.00 0.00 48 1003.6
20260507141533 68 287 3.5 10.4 0.00 0.00 0.00 47 1003.7
20260507140032 67 257 2.6 8.7 0.00 0.00 0.00 46 1003.8
20260507134516 67 193 1.7 7.8 0.00 0.00 0.00 46 1003.9
20260507133018 65 247 1.7 7.8 0.00 0.00 0.00 51 1003.9
20260507131519 66 265 1.7 7.0 0.00 0.00 0.00 47 1003.9
20260507130027 68 148 3.5 9.6 0.00 0.00 0.00 44 1004.0
20260507124520 68 276 3.5 9.6 0.00 0.00 0.00 45 1004.1
20260507123013 67 236 1.7 10.4 0.00 0.00 0.00 45 1004.2
20260507121511 67 298 2.6 8.7 0.00 0.00 0.00 43 1004.5
20260507120011 67 204 0.0 4.3 0.00 0.00 0.00 48 1004.8
20260507114502 65 221 0.0 5.2 0.00 0.00 0.00 52 1005.1
20260507113102 64 77 0.0 5.2 0.00 0.00 0.00 53 1005.2
20260507111559 63 100 2.6 8.7 0.00 0.00 0.00 55 1005.2
20260507110056 63 102 0.9 4.3 0.00 0.00 0.00 57 1005.2
20260507104555 63 187 0.0 4.3 0.00 0.00 0.00 55 1005.2
20260507103054 63 223 2.6 5.2 0.00 0.00 0.00 55 1005.1
20260507101554 63 190 1.7 4.3 0.00 0.00 0.00 58 1005.2
20260507100024 60 196 0.0 1.7 0.00 0.00 0.00 64 1005.3
20260507094514 58 175 0.0 6.1 0.00 0.00 0.00 67 1005.5
20260507093011 59 107 2.6 6.1 0.00 0.00 0.00 61 1005.6
20260507091510 59 330 0.0 0.0 0.00 0.00 0.00 61 1005.5
20260507090009 59 330 0.0 0.0 0.00 0.00 0.00 62 1005.3
20260507084509 59 330 0.0 2.6 0.00 0.00 0.00 61 1005.2
20260507083006 59 329 0.0 2.6 0.00 0.00 0.00 62 1005.2
20260507081502 58 329 0.9 4.3 0.00 0.00 0.00 63 1005.1
20260507080002 57 329 0.0 3.5 0.00 0.00 0.00 64 1005.2
20260507074500 57 329 0.9 2.6 0.00 0.00 0.00 65 1005.2
20260507073058 56 329 1.7 3.5 0.00 0.00 0.00 65 1005.3
20260507071611 56 77 0.0 0.0 0.00 0.00 0.00 66 1005.2
20260507070057 55 77 0.0 0.0 0.00 0.00 0.00 70 1005.1
20260507064556 54 77 0.0 2.6 0.00 0.00 0.00 70 1004.9
20260507063025 53 101 1.7 7.0 0.00 0.00 0.00 71 1004.8
20260507061524 52 130 4.3 7.8 0.00 0.00 0.00 73 1004.6
20260507060019 52 89 1.7 4.3 0.00 0.00 0.00 73 1004.6
20260507054519 51 96 1.7 4.3 0.00 0.00 0.00 74 1004.6
20260507053017 51 105 1.7 6.1 0.00 0.00 0.00 74 1004.3
20260507051527 51 115 0.9 3.5 0.00 0.00 0.00 74 1004.2
20260507050014 51 119 1.7 3.5 0.00 0.00 0.00 74 1004.1
20260507044513 51 113 0.0 3.5 0.00 0.00 0.00 74 1004.0
20260507043012 51 81 0.0 3.5 0.00 0.00 0.00 73 1004.0
20260507041509 51 95 1.7 5.2 0.00 0.00 0.00 72 1004.1
20260507040039 52 108 0.0 5.2 0.00 0.00 0.00 72 1004.2
20260507034540 52 105 0.9 6.1 0.00 0.00 0.00 71 1004.1
20260507033013 52 100 0.9 4.3 0.00 0.00 0.00 70 1004.1
20260507031503 53 96 0.0 4.3 0.00 0.00 0.00 69 1004.1
20260507030101 53 96 0.0 2.6 0.00 0.00 0.00 69 1004.1
20260507024605 53 87 0.9 2.6 0.00 0.00 0.00 68 1003.9
20260507023057 54 86 0.0 1.7 0.00 0.00 0.00 67 1003.9
20260507021555 54 86 0.9 5.2 0.00 0.00 0.00 66 1003.8
20260507020050 55 106 1.7 4.3 0.00 0.00 0.00 65 1003.8
20260507014554 56 346 0.0 1.7 0.00 0.00 0.00 62 1004.1
20260507013048 57 346 0.0 0.0 0.00 0.00 0.00 59 1004.1
20260507011542 57 346 0.0 1.7 0.00 0.00 0.00 59 1004.2
20260507010037 58 346 0.0 0.9 0.00 0.00 0.00 58 1004.3
20260507004539 58 346 0.0 3.5 0.00 0.00 0.00 58 1004.3
20260507003035 58 346 0.0 1.7 0.00 0.00 0.00 57 1004.4
20260507001540 58 346 0.9 3.5 0.00 0.00 0.00 57 1004.4
20260507000032 59 37 0.9 4.3 0.00 0.00 0.00 57 1004.7
20260506234531 59 346 0.0 3.5 0.00 0.00 0.00 58 1004.7
20260506233030 59 321 0.0 1.7 0.00 0.00 0.00 58 1004.6
20260506231530 59 38 0.0 3.5 0.00 0.00 0.00 58 1004.7
20260506230028 59 143 0.0 0.0 0.00 0.00 0.00 59 1004.6
20260506224528 60 143 0.0 1.7 0.00 0.00 0.00 57 1004.6
20260506223027 60 152 0.0 3.5 0.00 0.00 0.00 57 1004.7
20260506221526 60 162 1.7 6.1 0.00 0.00 0.00 56 1004.7
20260506220034 60 200 0.9 6.1 0.00 0.00 0.00 56 1004.8
20260506214527 60 208 0.9 4.3 0.00 0.00 0.00 58 1004.8
20260506213028 61 194 0.9 4.3 0.00 0.00 0.00 55 1004.7
20260506211522 61 190 0.0 4.3 0.00 0.00 0.00 48 1004.6
20260506210023 62 184 0.9 8.7 0.00 0.00 0.00 44 1004.5
20260506204553 62 198 0.9 3.5 0.00 0.00 0.00 44 1004.1
20260506203052 62 136 0.0 0.0 0.00 0.00 0.00 45 1003.9
20260506201521 62 101 0.0 4.3 0.00 0.00 0.00 45 1003.7
20260506200022 63 181 0.0 4.3 0.00 0.00 0.00 46 1003.6
20260506194517 64 113 1.7 6.1 0.00 0.00 0.00 47 1003.2
20260506193016 65 221 1.7 6.1 0.00 0.00 0.00 47 1003.0
20260506191516 65 181 0.9 5.2 0.00 0.00 0.00 46 1002.8
20260506190023 66 222 2.6 5.2 0.00 0.00 0.00 45 1002.8
20260506184549 66 196 1.7 5.2 0.00 0.00 0.00 45 1002.7
20260506183051 67 96 2.6 7.0 0.00 0.00 0.00 45 1002.7
20260506181553 67 159 0.9 7.8 0.00 0.00 0.00 42 1002.8
20260506180100 68 152 1.7 6.1 0.00 0.00 0.00 41 1002.7
20260506174540 68 190 0.0 7.0 0.00 0.00 0.00 41 1002.7
20260506173045 69 242 3.5 6.1 0.00 0.00 0.00 40 1002.6
20260506171537 69 244 0.9 9.6 0.00 0.00 0.00 40 1002.6
20260506170037 71 221 2.6 7.8 0.00 0.00 0.00 38 1002.6
20260506164536 72 194 0.9 7.8 0.00 0.00 0.00 37 1002.5
20260506163038 72 173 1.7 7.0 0.00 0.00 0.00 36 1002.5
20260506161536 72 125 1.7 7.0 0.00 0.00 0.00 36 1002.5
20260506160036 72 240 0.0 7.0 0.00 0.00 0.00 37 1002.6